Time,TemperatureF,DewpointF,PressureIn,WindDirection,WindDirectionDegrees,WindSpeedMPH,WindSpeedGustMPH,Humidity,HourlyPrecipIn,Conditions,Clouds,dailyrainin,SoftwareType,DateUTC
2013-03-13 00:03:00,30.6,23.0,30.27,NW,308,2.3,2.3,73,0.00,CLR,,0.00,WeatherDisplay:10.37,2013-03-13 05:03:00,
2013-03-13 00:08:00,30.4,22.8,30.27,NW,308,3.5,3.5,73,0.00,CLR,,0.00,WeatherDisplay:10.37,2013-03-13 05:08:00,
2013-03-13 00:13:00,30.2,22.9,30.27,NW,308,3.5,3.5,74,0.00,CLR,,0.00,WeatherDisplay:10.37,2013-03-13 05:13:00,
2013-03-13 00:18:00,30.0,22.7,30.27,NW,308,3.5,3.5,74,0.00,CLR,,0.00,WeatherDisplay:10.37,2013-03-13 05:18:00,
2013-03-13 00:23:00,29.9,22.9,30.27,NW,309,3.5,3.5,75,0.00,CLR,,0.00,WeatherDisplay:10.37,2013-03-13 05:23:00,
2013-03-13 00:28:00,29.8,22.8,30.27,NW,309,1.2,1.2,75,0.00,CLR,,0.00,WeatherDisplay:10.37,2013-03-13 05:28:00,
2013-03-13 00:33:00,29.7,22.7,30.27,NW,309,4.6,4.6,75,0.00,CLR,,0.00,WeatherDisplay:10.37,2013-03-13 05:33:00,
2013-03-13 00:38:00,29.6,22.6,30.27,NW,309,5.0,5.0,75,0.00,CLR,,0.00,WeatherDisplay:10.37,2013-03-13 05:38:00,
2013-03-13 00:43:00,29.5,22.6,30.27,NW,308,3.5,3.5,75,0.00,CLR,,0.00,WeatherDisplay:10.37,2013-03-13 05:43:00,
2013-03-13 00:48:00,29.5,22.6,30.28,NW,304,3.5,3.5,75,0.00,CLR,,0.00,WeatherDisplay:10.37,2013-03-13 05:48:00,
2013-03-13 00:53:00,29.5,22.2,30.27,NW,304,3.5,3.5,74,0.00,CLR,,0.00,WeatherDisplay:10.37,2013-03-13 05:53:00,
2013-03-13 00:58:00,29.4,22.1,30.28,NW,304,4.0,4.0,74,0.00,CLR,,0.00,WeatherDisplay:10.37,2013-03-13 05:58:00,
2013-03-13 01:03:00,29.4,22.1,30.28,WNW,301,10.4,10.4,74,0.00,CLR,,0.00,WeatherDisplay:10.37,2013-03-13 06:03:00,
2013-03-13 01:08:00,29.3,22.0,30.28,WNW,302,5.8,5.8,74,0.00,CLR,,0.00,WeatherDisplay:10.37,2013-03-13 06:08:00,
2013-03-13 01:13:00,29.3,21.7,30.28,WNW,300,6.9,6.9,73,0.00,CLR,,0.00,WeatherDisplay:10.37,2013-03-13 06:13:00,
2013-03-13 01:18:00,29.2,21.6,30.27,WNW,300,5.0,5.0,73,0.00,CLR,,0.00,WeatherDisplay:10.37,2013-03-13 06:18:00,
2013-03-13 01:23:00,29.1,21.5,30.28,WNW,300,3.5,3.5,73,0.00,CLR,,0.00,WeatherDisplay:10.37,2013-03-13 06:23:00,
2013-03-13 01:28:00,29.1,21.5,30.28,WNW,300,5.8,5.8,73,0.00,CLR,,0.00,WeatherDisplay:10.37,2013-03-13 06:28:00,
2013-03-13 01:33:00,29.0,21.4,30.28,WNW,300,3.5,3.5,73,0.00,CLR,,0.00,WeatherDisplay:10.37,2013-03-13 06:33:00,
2013-03-13 01:38:00,28.9,21.7,30.28,WNW,300,2.3,2.3,74,0.00,CLR,,0.00,WeatherDisplay:10.37,2013-03-13 06:38:00,
2013-03-13 01:43:00,28.8,21.6,30.28,WNW,300,2.3,2.3,74,0.00,CLR,,0.00,WeatherDisplay:10.37,2013-03-13 06:43:00,
2013-03-13 01:48:00,28.7,21.8,30.28,WNW,300,3.5,3.5,75,0.00,CLR,,0.00,WeatherDisplay:10.37,2013-03-13 06:48:00,
2013-03-13 01:53:00,28.5,21.9,30.28,WNW,299,3.5,3.5,76,0.00,CLR,,0.00,WeatherDisplay:10.37,2013-03-13 06:53:00,
2013-03-13 01:58:00,28.4,21.8,30.28,WNW,299,2.3,2.3,76,0.00,CLR,,0.00,WeatherDisplay:10.37,2013-03-13 06:58:00,
2013-03-13 02:03:00,28.2,21.9,30.28,WNW,300,2.3,2.3,77,0.00,CLR,,0.00,WeatherDisplay:10.37,2013-03-13 07:03:00,
2013-03-13 02:08:00,28.0,21.7,30.28,WNW,299,2.3,2.3,77,0.00,CLR,,0.00,WeatherDisplay:10.37,2013-03-13 07:08:00,
2013-03-13 02:13:00,27.8,21.8,30.28,WNW,300,2.3,2.3,78,0.00,CLR,,0.00,WeatherDisplay:10.37,2013-03-13 07:13:00,
2013-03-13 02:18:00,27.7,21.7,30.28,WNW,299,2.3,2.3,78,0.00,CLR,,0.00,WeatherDisplay:10.37,2013-03-13 07:18:00,
2013-03-13 02:23:00,27.6,21.6,30.28,WNW,300,3.5,3.5,78,0.00,CLR,,0.00,WeatherDisplay:10.37,2013-03-13 07:23:00,
2013-03-13 02:28:00,27.4,21.7,30.28,WNW,300,0.0,0.0,79,0.00,CLR,,0.00,WeatherDisplay:10.37,2013-03-13 07:28:00,
2013-03-13 02:33:00,27.3,21.6,30.29,WNW,300,3.5,3.5,79,0.00,CLR,,0.00,WeatherDisplay:10.37,2013-03-13 07:33:00,
2013-03-13 02:38:00,27.2,21.5,30.29,WNW,299,2.3,2.3,79,0.00,CLR,,0.00,WeatherDisplay:10.37,2013-03-13 07:38:00,
2013-03-13 02:43:00,27.2,21.5,30.29,WNW,300,2.3,2.3,79,0.00,CLR,,0.00,WeatherDisplay:10.37,2013-03-13 07:43:00,
2013-03-13 02:48:00,27.2,21.5,30.29,WNW,300,4.6,4.6,79,0.00,CLR,,0.00,WeatherDisplay:10.37,2013-03-13 07:48:00,
2013-03-13 02:53:00,27.1,21.5,30.29,WNW,300,2.0,2.0,79,0.00,CLR,,0.00,WeatherDisplay:10.37,2013-03-13 07:53:00,
2013-03-13 02:58:00,27.0,21.4,30.30,WNW,300,2.3,2.3,79,0.00,CLR,,0.00,WeatherDisplay:10.37,2013-03-13 07:58:00,
2013-03-13 03:03:00,26.9,21.3,30.30,WNW,299,2.3,2.3,79,0.00,CLR,,0.00,WeatherDisplay:10.37,2013-03-13 08:03:00,
2013-03-13 03:08:00,26.7,21.1,30.30,WNW,299,4.6,4.6,79,0.00,CLR,,0.00,WeatherDisplay:10.37,2013-03-13 08:08:00,
2013-03-13 03:13:00,26.7,21.1,30.30,WNW,300,2.3,0.0,79,0.00,CLR,,0.00,WeatherDisplay:10.37,2013-03-13 08:13:00,
2013-03-13 03:18:00,26.6,21.0,30.30,WNW,300,0.0,0.0,79,0.00,CLR,,0.00,WeatherDisplay:10.37,2013-03-13 08:18:00,
2013-03-13 03:23:00,26.4,20.8,30.30,WNW,300,2.3,2.3,79,0.00,CLR,,0.00,WeatherDisplay:10.37,2013-03-13 08:23:00,
2013-03-13 03:28:00,26.3,21.0,30.30,WNW,300,1.2,0.0,80,0.00,CLR,,0.00,WeatherDisplay:10.37,2013-03-13 08:28:00,
2013-03-13 03:33:00,26.2,20.9,30.30,WNW,299,1.2,1.2,80,0.00,CLR,,0.00,WeatherDisplay:10.37,2013-03-13 08:33:00,
2013-03-13 03:38:00,26.2,20.9,30.30,WNW,299,2.3,2.3,80,0.00,CLR,,0.00,WeatherDisplay:10.37,2013-03-13 08:38:00,
2013-03-13 03:43:00,26.2,20.9,30.30,WNW,299,1.2,0.0,80,0.00,CLR,,0.00,WeatherDisplay:10.37,2013-03-13 08:43:00,
2013-03-13 03:48:00,26.1,20.8,30.30,WNW,299,3.5,0.0,80,0.00,CLR,,0.00,WeatherDisplay:10.37,2013-03-13 08:48:00,
2013-03-13 03:53:00,26.0,20.7,30.30,WNW,299,2.3,2.3,80,0.00,CLR,,0.00,WeatherDisplay:10.37,2013-03-13 08:53:00,
2013-03-13 03:58:00,25.9,20.6,30.30,WNW,300,2.3,2.3,80,0.00,CLR,,0.00,WeatherDisplay:10.37,2013-03-13 08:58:00,
2013-03-13 04:03:00,25.8,20.5,30.30,WNW,300,2.3,2.3,80,0.00,CLR,,0.00,WeatherDisplay:10.37,2013-03-13 09:03:00,
2013-03-13 04:08:00,25.7,20.4,30.30,WNW,300,2.3,2.3,80,0.00,CLR,,0.00,WeatherDisplay:10.37,2013-03-13 09:08:00,
2013-03-13 04:13:00,25.6,20.6,30.30,WNW,300,3.5,3.5,81,0.00,CLR,,0.00,WeatherDisplay:10.37,2013-03-13 09:13:00,
2013-03-13 04:18:00,25.6,20.6,30.30,WNW,299,3.5,0.0,81,0.00,CLR,,0.00,WeatherDisplay:10.37,2013-03-13 09:18:00,
2013-03-13 04:23:00,25.5,20.5,30.31,WNW,299,0.0,0.6,81,0.00,CLR,,0.00,WeatherDisplay:10.37,2013-03-13 09:23:00,
2013-03-13 04:28:00,25.4,20.4,30.31,WNW,300,3.5,3.5,81,0.00,CLR,,0.00,WeatherDisplay:10.37,2013-03-13 09:28:00,
2013-03-13 04:33:00,25.3,20.3,30.31,WNW,300,3.5,3.5,81,0.00,CLR,,0.00,WeatherDisplay:10.37,2013-03-13 09:33:00,
2013-03-13 04:39:00,25.2,20.2,30.31,WNW,299,2.3,2.3,81,0.00,CLR,,0.00,WeatherDisplay:10.37,2013-03-13 09:39:00,
2013-03-13 04:44:00,25.1,20.1,30.31,WNW,299,1.0,0.0,81,0.00,CLR,,0.00,WeatherDisplay:10.37,2013-03-13 09:44:00,
2013-03-13 04:49:00,25.0,20.3,30.31,WNW,300,3.5,3.5,82,0.00,CLR,,0.00,WeatherDisplay:10.37,2013-03-13 09:49:00,
2013-03-13 04:54:00,25.0,20.3,30.31,WNW,300,2.3,2.3,82,0.00,CLR,,0.00,WeatherDisplay:10.37,2013-03-13 09:54:00,
2013-03-13 04:59:00,24.9,20.2,30.32,WNW,299,0.0,0.0,82,0.00,CLR,,0.00,WeatherDisplay:10.37,2013-03-13 09:59:00,
2013-03-13 05:04:00,24.9,20.2,30.32,WNW,300,1.2,0.0,82,0.00,CLR,,0.00,WeatherDisplay:10.37,2013-03-13 10:04:00,
2013-03-13 05:09:00,24.8,20.4,30.31,WNW,300,2.3,2.3,83,0.00,CLR,,0.00,WeatherDisplay:10.37,2013-03-13 10:09:00,
2013-03-13 05:14:00,24.7,20.0,30.31,WNW,299,3.5,3.5,82,0.00,CLR,,0.00,WeatherDisplay:10.37,2013-03-13 10:14:00,
2013-03-13 05:19:00,24.7,20.3,30.32,WNW,299,3.5,3.5,83,0.00,CLR,,0.00,WeatherDisplay:10.37,2013-03-13 10:19:00,
2013-03-13 05:24:00,24.8,20.4,30.32,WNW,300,2.3,2.3,83,0.00,CLR,,0.00,WeatherDisplay:10.37,2013-03-13 10:24:00,
2013-03-13 05:29:00,24.8,20.4,30.32,WNW,300,3.5,3.5,83,0.00,CLR,,0.00,WeatherDisplay:10.37,2013-03-13 10:29:00,
2013-03-13 05:34:00,24.9,20.5,30.32,WNW,300,2.3,2.3,83,0.00,CLR,,0.00,WeatherDisplay:10.37,2013-03-13 10:34:00,
2013-03-13 05:39:00,24.9,20.5,30.32,WNW,300,2.3,2.3,83,0.00,CLR,,0.00,WeatherDisplay:10.37,2013-03-13 10:39:00,
2013-03-13 05:44:00,24.9,20.5,30.33,WNW,300,2.3,2.3,83,0.00,CLR,,0.00,WeatherDisplay:10.37,2013-03-13 10:44:00,
2013-03-13 05:49:00,24.8,20.4,30.33,WNW,299,5.8,5.8,83,0.00,CLR,,0.00,WeatherDisplay:10.37,2013-03-13 10:49:00,
2013-03-13 05:54:00,24.7,20.3,30.33,WNW,300,3.5,3.5,83,0.00,CLR,,0.00,WeatherDisplay:10.37,2013-03-13 10:54:00,
2013-03-13 05:59:00,24.7,20.3,30.33,WNW,299,3.5,3.5,83,0.00,CLR,,0.00,WeatherDisplay:10.37,2013-03-13 10:59:00,
2013-03-13 06:04:00,24.6,20.2,30.33,WNW,299,5.8,5.8,83,0.00,CLR,,0.00,WeatherDisplay:10.37,2013-03-13 11:04:00,
2013-03-13 06:09:00,24.6,20.2,30.33,WNW,299,2.3,2.3,83,0.00,CLR,,0.00,WeatherDisplay:10.37,2013-03-13 11:09:00,
2013-03-13 06:14:00,24.6,20.2,30.33,WNW,299,2.3,2.3,83,0.00,CLR,,0.00,WeatherDisplay:10.37,2013-03-13 11:14:00,
2013-03-13 06:19:00,24.5,20.1,30.33,WNW,299,1.2,1.2,83,0.00,CLR,,0.00,WeatherDisplay:10.37,2013-03-13 11:19:00,
2013-03-13 06:24:00,24.4,20.3,30.33,WNW,299,0.0,0.0,84,0.00,CLR,,0.00,WeatherDisplay:10.37,2013-03-13 11:24:00,
2013-03-13 06:29:00,24.4,20.3,30.34,WNW,299,1.2,1.2,84,0.00,CLR,,0.00,WeatherDisplay:10.37,2013-03-13 11:29:00,
2013-03-13 06:34:00,24.3,20.2,30.34,WNW,299,1.2,1.2,84,0.00,CLR,,0.00,WeatherDisplay:10.37,2013-03-13 11:34:00,
2013-03-13 06:39:00,24.2,20.1,30.34,WNW,299,2.0,2.0,84,0.00,CLR,,0.00,WeatherDisplay:10.37,2013-03-13 11:39:00,
2013-03-13 06:44:00,24.2,20.1,30.34,WNW,299,3.5,3.5,84,0.00,CLR,,0.00,WeatherDisplay:10.37,2013-03-13 11:44:00,
2013-03-13 06:49:00,24.3,20.2,30.34,WNW,299,3.0,3.0,84,0.00,CLR,,0.00,WeatherDisplay:10.37,2013-03-13 11:49:00,
2013-03-13 06:54:00,24.3,20.2,30.34,WNW,299,2.3,2.3,84,0.00,CLR,,0.00,WeatherDisplay:10.37,2013-03-13 11:54:00,
2013-03-13 06:59:00,24.4,20.3,30.34,WNW,299,3.5,3.5,84,0.00,CLR,,0.00,WeatherDisplay:10.37,2013-03-13 11:59:00,
2013-03-13 07:04:00,24.4,20.3,30.34,WNW,299,3.0,3.0,84,0.00,CLR,,0.00,WeatherDisplay:10.37,2013-03-13 12:04:00,
2013-03-13 07:09:00,24.4,20.3,30.34,WNW,299,0.0,0.0,84,0.00,CLR,,0.00,WeatherDisplay:10.37,2013-03-13 12:09:00,
2013-03-13 07:14:00,24.3,20.2,30.35,WNW,299,1.2,1.2,84,0.00,CLR,,0.00,WeatherDisplay:10.37,2013-03-13 12:14:00,
2013-03-13 07:19:00,24.2,20.1,30.35,WNW,299,1.0,0.0,84,0.00,CLR,,0.00,WeatherDisplay:10.37,2013-03-13 12:19:00,
2013-03-13 07:24:00,24.1,20.0,30.35,WNW,299,1.2,1.2,84,0.00,CLR,,0.00,WeatherDisplay:10.37,2013-03-13 12:24:00,
2013-03-13 07:29:00,24.0,19.9,30.35,WNW,299,2.3,2.3,84,0.00,CLR,,0.00,WeatherDisplay:10.37,2013-03-13 12:29:00,
2013-03-13 07:34:00,23.9,19.8,30.35,WNW,299,3.5,3.5,84,0.00,CLR,,0.00,WeatherDisplay:10.37,2013-03-13 12:34:00,
2013-03-13 07:39:00,23.9,19.8,30.35,WNW,299,0.0,0.1,84,0.00,CLR,,0.00,WeatherDisplay:10.37,2013-03-13 12:39:00,
2013-03-13 07:44:00,24.0,19.9,30.35,WNW,299,2.3,2.3,84,0.00,CLR,,0.00,WeatherDisplay:10.37,2013-03-13 12:44:00,
2013-03-13 07:49:00,24.1,20.0,30.35,WNW,299,0.0,0.0,84,0.00,CLR,,0.00,WeatherDisplay:10.37,2013-03-13 12:49:00,
2013-03-13 07:54:00,24.2,20.1,30.35,WNW,299,1.2,1.2,84,0.00,CLR,,0.00,WeatherDisplay:10.37,2013-03-13 12:54:00,
2013-03-13 07:59:00,24.3,20.2,30.36,WNW,299,0.0,0.0,84,0.00,CLR,,0.00,WeatherDisplay:10.37,2013-03-13 12:59:00,
2013-03-13 08:04:00,24.3,20.2,30.36,WNW,299,0.0,0.0,84,0.00,CLR,,0.00,WeatherDisplay:10.37,2013-03-13 13:04:00,
2013-03-13 08:09:00,24.3,20.2,30.37,WNW,299,0.0,0.0,84,0.00,CLR,,0.00,WeatherDisplay:10.37,2013-03-13 13:09:00,
2013-03-13 08:14:00,24.4,20.3,30.37,WNW,299,0.0,0.0,84,0.00,CLR,,0.00,WeatherDisplay:10.37,2013-03-13 13:14:00,
2013-03-13 08:19:00,24.5,20.4,30.37,WNW,299,0.0,0.0,84,0.00,CLR,,0.00,WeatherDisplay:10.37,2013-03-13 13:19:00,
2013-03-13 08:24:00,24.7,20.6,30.37,WNW,299,1.2,1.2,84,0.00,CLR,,0.00,WeatherDisplay:10.37,2013-03-13 13:24:00,
2013-03-13 08:29:00,25.1,20.7,30.37,WNW,299,2.3,2.3,83,0.00,CLR,,0.00,WeatherDisplay:10.37,2013-03-13 13:29:00,
2013-03-13 08:34:00,25.3,20.9,30.37,WNW,299,3.0,3.0,83,0.00,CLR,,0.00,WeatherDisplay:10.37,2013-03-13 13:34:00,
2013-03-13 08:39:00,25.6,20.9,30.37,WNW,299,3.5,3.5,82,0.00,CLR,,0.00,WeatherDisplay:10.37,2013-03-13 13:39:00,
2013-03-13 08:44:00,25.8,20.8,30.38,WNW,299,2.3,2.3,81,0.00,CLR,,0.00,WeatherDisplay:10.37,2013-03-13 13:44:00,
2013-03-13 08:49:00,26.0,20.7,30.38,NW,321,5.8,5.8,80,0.00,CLR,,0.00,WeatherDisplay:10.37,2013-03-13 13:49:00,
2013-03-13 08:54:00,26.3,20.7,30.38,NW,321,4.6,4.6,79,0.00,CLR,,0.00,WeatherDisplay:10.37,2013-03-13 13:54:00,
2013-03-13 08:59:00,26.6,20.4,30.39,NNW,341,6.9,6.9,77,0.00,CLR,,0.00,WeatherDisplay:10.37,2013-03-13 13:59:00,
2013-03-13 09:04:00,26.9,20.7,30.39,NNW,342,2.3,2.3,77,0.00,CLR,,0.00,WeatherDisplay:10.37,2013-03-13 14:04:00,
2013-03-13 09:09:00,27.3,21.0,30.39,NNW,341,3.5,3.5,77,0.00,CLR,,0.00,WeatherDisplay:10.37,2013-03-13 14:09:00,
2013-03-13 09:14:00,27.8,21.2,30.39,NNW,341,3.5,3.5,76,0.00,CLR,,0.00,WeatherDisplay:10.37,2013-03-13 14:14:00,
2013-03-13 09:19:00,28.0,21.1,30.39,NNE,19,4.6,5.3,75,0.00,CLR,,0.00,WeatherDisplay:10.37,2013-03-13 14:19:00,
2013-03-13 09:24:00,27.9,20.7,30.40,NNE,15,6.9,6.9,74,0.00,CLR,,0.00,WeatherDisplay:10.37,2013-03-13 14:24:00,
2013-03-13 09:29:00,28.3,21.1,30.40,North,10,5.0,5.0,74,0.00,CLR,,0.00,WeatherDisplay:10.37,2013-03-13 14:29:00,
2013-03-13 09:35:00,28.9,21.7,30.40,North,5,5.0,5.0,74,0.00,CLR,,0.00,WeatherDisplay:10.37,2013-03-13 14:35:00,
2013-03-13 09:40:00,29.0,21.4,30.40,North,360,2.0,2.0,73,0.00,CLR,,0.00,WeatherDisplay:10.37,2013-03-13 14:40:00,
2013-03-13 09:45:00,29.7,22.1,30.40,North,360,1.2,0.0,73,0.00,CLR,,0.00,WeatherDisplay:10.37,2013-03-13 14:45:00,
2013-03-13 09:50:00,29.7,21.8,30.40,North,5,5.8,5.8,72,0.00,CLR,,0.00,WeatherDisplay:10.37,2013-03-13 14:50:00,
2013-03-13 09:55:00,29.6,22.0,30.40,North,360,1.2,1.2,73,0.00,CLR,,0.00,WeatherDisplay:10.37,2013-03-13 14:55:00,
2013-03-13 10:00:00,30.2,22.3,30.40,North,5,2.3,0.0,72,0.00,CLR,,0.00,WeatherDisplay:10.37,2013-03-13 15:00:00,
2013-03-13 10:05:00,30.7,22.7,30.41,North,360,3.5,3.5,72,0.00,CLR,,0.00,WeatherDisplay:10.37,2013-03-13 15:05:00,
2013-03-13 10:10:00,31.5,23.2,30.40,North,5,3.5,3.5,71,0.00,CLR,,0.00,WeatherDisplay:10.37,2013-03-13 15:10:00,
2013-03-13 10:15:00,32.2,22.8,30.41,North,360,1.2,1.2,68,0.00,CLR,,0.00,WeatherDisplay:10.37,2013-03-13 15:15:00,
2013-03-13 10:20:00,32.4,23.0,30.41,North,5,3.5,0.0,68,0.00,CLR,,0.00,WeatherDisplay:10.37,2013-03-13 15:20:00,
2013-03-13 10:25:00,33.0,23.9,30.41,North,360,4.6,4.6,69,0.00,CLR,,0.00,WeatherDisplay:10.37,2013-03-13 15:25:00,
2013-03-13 10:30:00,33.4,23.6,30.41,North,360,3.5,3.5,67,0.00,CLR,,0.00,WeatherDisplay:10.37,2013-03-13 15:30:00,
2013-03-13 10:35:00,33.9,23.7,30.41,North,360,3.5,0.0,66,0.00,CLR,,0.00,WeatherDisplay:10.37,2013-03-13 15:35:00,
2013-03-13 10:40:00,34.4,23.8,30.41,North,5,3.5,3.5,65,0.00,CLR,,0.00,WeatherDisplay:10.37,2013-03-13 15:40:00,
2013-03-13 10:45:00,34.4,23.8,30.41,North,5,2.0,2.0,65,0.00,CLR,,0.00,WeatherDisplay:10.37,2013-03-13 15:45:00,
2013-03-13 10:50:00,34.7,23.4,30.41,North,360,2.3,2.3,63,0.00,CLR,,0.00,WeatherDisplay:10.37,2013-03-13 15:50:00,
2013-03-13 10:55:00,35.0,24.0,30.41,North,5,1.2,0.0,64,0.00,CLR,,0.00,WeatherDisplay:10.37,2013-03-13 15:55:00,
2013-03-13 11:00:00,35.4,23.7,30.41,North,360,0.0,0.3,62,0.00,CLR,,0.00,WeatherDisplay:10.37,2013-03-13 16:00:00,
2013-03-13 11:05:00,36.0,24.6,30.41,North,5,1.2,1.2,63,0.00,CLR,,0.00,WeatherDisplay:10.37,2013-03-13 16:05:00,
2013-03-13 11:10:00,35.3,22.4,30.41,North,5,2.3,2.3,59,0.00,CLR,,0.00,WeatherDisplay:10.37,2013-03-13 16:10:00,
2013-03-13 11:15:00,34.4,21.9,30.41,North,5,5.0,5.0,60,0.00,CLR,,0.00,WeatherDisplay:10.37,2013-03-13 16:15:00,
2013-03-13 11:20:00,34.6,22.9,30.42,North,360,3.0,3.0,62,0.00,CLR,,0.00,WeatherDisplay:10.37,2013-03-13 16:20:00,
2013-03-13 11:25:00,35.6,23.1,30.42,North,3,0.0,4.0,60,0.00,CLR,,0.00,WeatherDisplay:10.37,2013-03-13 16:25:00,
2013-03-13 11:30:00,36.7,23.7,30.42,North,11,3.5,3.5,59,0.00,CLR,,0.00,WeatherDisplay:10.37,2013-03-13 16:30:00,
2013-03-13 11:35:00,37.1,22.8,30.42,North,360,3.5,3.5,56,0.00,CLR,,0.00,WeatherDisplay:10.37,2013-03-13 16:35:00,
2013-03-13 11:40:00,36.5,22.3,30.42,North,355,1.2,0.0,56,0.00,CLR,,0.00,WeatherDisplay:10.37,2013-03-13 16:40:00,
2013-03-13 11:45:00,37.0,23.1,30.42,North,356,2.0,7.0,57,0.00,CLR,,0.00,WeatherDisplay:10.37,2013-03-13 16:45:00,
2013-03-13 11:50:00,37.3,23.0,30.42,North,355,2.3,2.3,56,0.00,CLR,,0.00,WeatherDisplay:10.37,2013-03-13 16:50:00,
2013-03-13 11:55:00,37.8,23.9,30.42,North,355,2.3,2.3,57,0.00,CLR,,0.00,WeatherDisplay:10.37,2013-03-13 16:55:00,
2013-03-13 12:00:00,38.3,23.5,30.42,North,355,1.2,0.0,55,0.00,CLR,,0.00,WeatherDisplay:10.37,2013-03-13 17:00:00,
2013-03-13 12:05:00,38.3,23.6,30.42,North,355,2.0,5.0,55,0.00,CLR,,0.00,WeatherDisplay:10.37,2013-03-13 17:05:00,
2013-03-13 12:10:00,37.9,23.6,30.42,North,350,5.8,5.8,56,0.00,CLR,,0.00,WeatherDisplay:10.37,2013-03-13 17:10:00,
2013-03-13 12:15:00,38.4,23.6,30.42,North,350,1.2,1.5,55,0.00,CLR,,0.00,WeatherDisplay:10.37,2013-03-13 17:15:00,
2013-03-13 12:20:00,38.9,24.1,30.41,North,350,3.5,3.5,55,0.00,CLR,,0.00,WeatherDisplay:10.37,2013-03-13 17:20:00,
2013-03-13 12:25:00,39.0,23.3,30.41,North,350,2.3,2.3,53,0.00,CLR,,0.00,WeatherDisplay:10.37,2013-03-13 17:25:00,
2013-03-13 12:30:00,39.1,24.3,30.41,North,350,4.6,4.6,55,0.00,CLR,,0.00,WeatherDisplay:10.37,2013-03-13 17:30:00,
2013-03-13 12:35:00,39.3,23.6,30.41,NNW,334,2.3,2.3,53,0.00,CLR,,0.00,WeatherDisplay:10.37,2013-03-13 17:35:00,
2013-03-13 12:40:00,39.4,23.7,30.41,NNW,334,1.2,1.2,53,0.00,CLR,,0.00,WeatherDisplay:10.37,2013-03-13 17:40:00,
2013-03-13 12:45:00,39.8,24.0,30.41,NNW,334,1.0,4.0,53,0.00,CLR,,0.00,WeatherDisplay:10.37,2013-03-13 17:45:00,
2013-03-13 12:50:00,40.1,24.3,30.41,NW,326,3.5,3.5,53,0.00,CLR,,0.00,WeatherDisplay:10.37,2013-03-13 17:50:00,
2013-03-13 12:55:00,40.4,24.1,30.41,NNW,327,0.0,3.0,52,0.00,CLR,,0.00,WeatherDisplay:10.37,2013-03-13 17:55:00,
2013-03-13 13:00:00,40.9,25.5,30.41,NW,326,3.0,3.0,54,0.00,CLR,,0.00,WeatherDisplay:10.37,2013-03-13 18:00:00,
2013-03-13 13:05:00,41.3,24.9,30.41,NW,326,0.0,3.0,52,0.00,CLR,,0.00,WeatherDisplay:10.37,2013-03-13 18:05:00,
2013-03-13 13:10:00,41.5,25.2,30.41,NW,323,9.0,9.0,52,0.00,CLR,,0.00,WeatherDisplay:10.37,2013-03-13 18:10:00,
2013-03-13 13:15:00,41.7,25.4,30.40,NW,322,1.0,9.0,52,0.00,CLR,,0.00,WeatherDisplay:10.37,2013-03-13 18:15:00,
2013-03-13 13:20:00,41.5,24.7,30.40,NW,321,1.0,6.0,51,0.00,CLR,,0.00,WeatherDisplay:10.37,2013-03-13 18:20:00,
2013-03-13 13:25:00,41.8,25.4,30.40,NW,321,3.5,3.5,52,0.00,CLR,,0.00,WeatherDisplay:10.37,2013-03-13 18:25:00,
2013-03-13 13:30:00,41.8,25.4,30.40,NW,320,4.6,4.6,52,0.00,CLR,,0.00,WeatherDisplay:10.37,2013-03-13 18:30:00,
2013-03-13 13:35:00,42.5,25.1,30.40,NW,319,4.6,4.6,50,0.00,CLR,,0.00,WeatherDisplay:10.37,2013-03-13 18:35:00,
2013-03-13 13:40:00,42.4,24.6,30.40,NW,319,2.3,2.3,49,0.00,CLR,,0.00,WeatherDisplay:10.37,2013-03-13 18:40:00,
2013-03-13 13:45:00,41.4,24.1,30.39,NW,319,1.0,5.0,50,0.00,CLR,,0.00,WeatherDisplay:10.37,2013-03-13 18:45:00,
2013-03-13 13:50:00,40.9,24.1,30.39,NW,319,1.2,1.7,51,0.00,CLR,,0.00,WeatherDisplay:10.37,2013-03-13 18:50:00,
2013-03-13 13:55:00,41.0,23.3,30.39,NW,318,2.0,5.0,49,0.00,CLR,,0.00,WeatherDisplay:10.37,2013-03-13 18:55:00,
2013-03-13 14:00:00,41.1,23.9,30.39,NW,317,1.2,1.2,50,0.00,CLR,,0.00,WeatherDisplay:10.37,2013-03-13 19:00:00,
2013-03-13 14:05:00,41.8,24.0,30.38,NW,317,0.0,2.0,49,0.00,CLR,,0.00,WeatherDisplay:10.37,2013-03-13 19:05:00,
2013-03-13 14:10:00,42.1,24.8,30.38,NW,315,4.6,4.6,50,0.00,CLR,,0.00,WeatherDisplay:10.37,2013-03-13 19:10:00,
2013-03-13 14:15:00,42.0,24.2,30.38,NW,315,1.2,1.2,49,0.00,CLR,,0.00,WeatherDisplay:10.37,2013-03-13 19:15:00,
2013-03-13 14:20:00,41.3,23.1,30.38,NW,315,1.2,1.2,48,0.00,CLR,,0.00,WeatherDisplay:10.37,2013-03-13 19:20:00,
2013-03-13 14:25:00,41.3,24.0,30.38,NW,315,3.5,3.5,50,0.00,CLR,,0.00,WeatherDisplay:10.37,2013-03-13 19:25:00,
2013-03-13 14:30:00,41.8,24.0,30.37,NW,315,1.2,1.2,49,0.00,CLR,,0.00,WeatherDisplay:10.37,2013-03-13 19:30:00,
2013-03-13 14:35:00,42.2,23.9,30.37,NW,315,0.0,1.0,48,0.00,CLR,,0.00,WeatherDisplay:10.37,2013-03-13 19:35:00,
2013-03-13 14:40:00,42.2,23.9,30.36,NW,315,0.0,0.5,48,0.00,CLR,,0.00,WeatherDisplay:10.37,2013-03-13 19:40:00,
2013-03-13 14:45:00,42.5,25.1,30.36,NW,315,1.2,0.0,50,0.00,CLR,,0.00,WeatherDisplay:10.37,2013-03-13 19:45:00,
2013-03-13 14:50:00,42.7,24.4,30.36,NW,315,1.0,1.0,48,0.00,CLR,,0.00,WeatherDisplay:10.37,2013-03-13 19:50:00,
2013-03-13 14:55:00,42.1,23.8,30.36,NW,315,1.2,1.2,48,0.00,CLR,,0.00,WeatherDisplay:10.37,2013-03-13 19:55:00,
2013-03-13 15:00:00,42.0,24.2,30.35,NW,315,0.0,0.1,49,0.00,CLR,,0.00,WeatherDisplay:10.37,2013-03-13 20:00:00,
2013-03-13 15:05:00,42.3,24.0,30.35,NW,315,1.2,1.2,48,0.00,CLR,,0.00,WeatherDisplay:10.37,2013-03-13 20:05:00,
2013-03-13 15:10:00,42.1,23.3,30.35,NW,315,1.2,0.0,47,0.00,CLR,,0.00,WeatherDisplay:10.37,2013-03-13 20:10:00,
2013-03-13 15:15:00,42.1,23.3,30.34,NW,315,0.0,3.0,47,0.00,CLR,,0.00,WeatherDisplay:10.37,2013-03-13 20:15:00,
2013-03-13 15:20:00,41.4,22.1,30.35,NW,315,3.5,3.5,46,0.00,CLR,,0.00,WeatherDisplay:10.37,2013-03-13 20:20:00,
2013-03-13 15:25:00,41.3,23.1,30.34,NW,315,0.0,0.0,48,0.00,CLR,,0.00,WeatherDisplay:10.37,2013-03-13 20:25:00,
2013-03-13 15:30:00,41.8,23.0,30.34,NW,315,3.5,3.5,47,0.00,CLR,,0.00,WeatherDisplay:10.37,2013-03-13 20:30:00,
2013-03-13 15:35:00,42.2,22.9,30.34,NW,306,3.5,3.5,46,0.00,CLR,,0.00,WeatherDisplay:10.37,2013-03-13 20:35:00,
2013-03-13 15:40:00,42.9,23.5,30.33,NW,307,0.0,2.0,46,0.00,CLR,,0.00,WeatherDisplay:10.37,2013-03-13 20:40:00,
2013-03-13 15:45:00,43.2,22.7,30.33,NW,306,3.5,3.5,44,0.00,CLR,,0.00,WeatherDisplay:10.37,2013-03-13 20:45:00,
2013-03-13 15:50:00,43.0,24.1,30.33,NW,306,0.0,1.0,47,0.00,CLR,,0.00,WeatherDisplay:10.37,2013-03-13 20:50:00,
2013-03-13 15:55:00,43.9,24.4,30.33,NW,306,1.2,0.0,46,0.00,CLR,,0.00,WeatherDisplay:10.37,2013-03-13 20:55:00,
2013-03-13 16:00:00,44.5,23.4,30.33,NW,306,3.5,3.5,43,0.00,CLR,,0.00,WeatherDisplay:10.37,2013-03-13 21:00:00,
2013-03-13 16:05:00,44.7,23.0,30.33,NW,306,0.0,0.0,42,0.00,CLR,,0.00,WeatherDisplay:10.37,2013-03-13 21:05:00,
2013-03-13 16:10:00,45.0,22.7,30.33,NW,306,1.0,3.0,41,0.00,CLR,,0.00,WeatherDisplay:10.37,2013-03-13 21:10:00,
2013-03-13 16:15:00,44.8,22.5,30.32,NW,306,1.2,0.0,41,0.00,CLR,,0.00,WeatherDisplay:10.37,2013-03-13 21:15:00,
2013-03-13 16:20:00,45.2,23.4,30.32,NW,306,0.0,3.0,42,0.00,CLR,,0.00,WeatherDisplay:10.37,2013-03-13 21:20:00,
2013-03-13 16:25:00,44.8,21.9,30.32,West,280,9.2,9.2,40,0.00,CLR,,0.00,WeatherDisplay:10.37,2013-03-13 21:25:00,
2013-03-13 16:30:00,44.2,22.5,30.32,West,280,3.5,0.0,42,0.00,CLR,,0.00,WeatherDisplay:10.37,2013-03-13 21:30:00,
2013-03-13 16:35:00,45.0,22.1,30.31,West,280,1.2,0.0,40,0.00,CLR,,0.00,WeatherDisplay:10.37,2013-03-13 21:35:00,
2013-03-13 16:40:00,45.0,21.5,30.31,West,279,4.0,4.0,39,0.00,CLR,,0.00,WeatherDisplay:10.37,2013-03-13 21:40:00,
2013-03-13 16:45:00,45.0,21.5,30.31,West,279,3.5,3.5,39,0.00,CLR,,0.00,WeatherDisplay:10.37,2013-03-13 21:45:00,
2013-03-13 16:50:00,44.8,21.3,30.32,West,279,5.0,5.0,39,0.00,CLR,,0.00,WeatherDisplay:10.37,2013-03-13 21:50:00,
2013-03-13 16:55:00,44.9,22.0,30.31,West,279,0.0,0.0,40,0.00,CLR,,0.00,WeatherDisplay:10.37,2013-03-13 21:55:00,
2013-03-13 17:00:00,44.7,21.2,30.31,West,273,6.9,6.9,39,0.00,CLR,,0.00,WeatherDisplay:10.37,2013-03-13 22:00:00,
2013-03-13 17:05:00,44.1,21.3,30.31,West,269,3.5,3.5,40,0.00,CLR,,0.00,WeatherDisplay:10.37,2013-03-13 22:05:00,
2013-03-13 17:10:00,44.5,21.0,30.30,West,269,2.3,2.3,39,0.00,CLR,,0.00,WeatherDisplay:10.37,2013-03-13 22:10:00,
2013-03-13 17:15:00,44.7,20.6,30.30,West,269,1.2,1.2,38,0.00,CLR,,0.00,WeatherDisplay:10.37,2013-03-13 22:15:00,
2013-03-13 17:20:00,45.0,20.3,30.30,West,268,4.6,4.6,37,0.00,CLR,,0.00,WeatherDisplay:10.37,2013-03-13 22:20:00,
2013-03-13 17:25:00,45.4,21.2,30.30,West,269,1.2,0.0,38,0.00,CLR,,0.00,WeatherDisplay:10.37,2013-03-13 22:25:00,
2013-03-13 17:30:00,45.2,20.4,30.30,West,269,3.5,3.5,37,0.00,CLR,,0.00,WeatherDisplay:10.37,2013-03-13 22:30:00,
2013-03-13 17:35:00,45.0,20.3,30.31,West,269,3.5,3.5,37,0.00,CLR,,0.00,WeatherDisplay:10.37,2013-03-13 22:35:00,
2013-03-13 17:40:00,45.1,21.0,30.30,West,268,2.3,2.3,38,0.00,CLR,,0.00,WeatherDisplay:10.37,2013-03-13 22:40:00,
2013-03-13 17:45:00,45.0,20.3,30.30,West,269,2.3,2.3,37,0.00,CLR,,0.00,WeatherDisplay:10.37,2013-03-13 22:45:00,
2013-03-13 17:50:00,45.0,20.3,30.30,West,269,1.2,1.2,37,0.00,CLR,,0.00,WeatherDisplay:10.37,2013-03-13 22:50:00,
2013-03-13 17:55:00,45.0,21.5,30.30,West,268,4.6,4.6,39,0.00,CLR,,0.00,WeatherDisplay:10.37,2013-03-13 22:55:00,
2013-03-13 18:00:00,45.2,21.7,30.30,West,269,3.5,3.5,39,0.00,CLR,,0.00,WeatherDisplay:10.37,2013-03-13 23:00:00,
2013-03-13 18:05:00,45.1,21.6,30.30,West,265,6.9,6.9,39,0.00,CLR,,0.00,WeatherDisplay:10.37,2013-03-13 23:05:00,
2013-03-13 18:10:00,44.8,21.9,30.30,West,264,2.3,2.3,40,0.00,CLR,,0.00,WeatherDisplay:10.37,2013-03-13 23:10:00,
2013-03-13 18:15:00,44.5,21.6,30.30,WSW,255,4.6,4.6,40,0.00,CLR,,0.00,WeatherDisplay:10.37,2013-03-13 23:15:00,
2013-03-13 18:20:00,44.6,21.7,30.30,WSW,254,0.0,0.0,40,0.00,CLR,,0.00,WeatherDisplay:10.37,2013-03-13 23:20:00,
2013-03-13 18:25:00,44.7,21.8,30.30,WSW,254,4.0,4.0,40,0.00,CLR,,0.00,WeatherDisplay:10.37,2013-03-13 23:25:00,
2013-03-13 18:30:00,44.7,21.8,30.30,WSW,254,1.2,1.2,40,0.00,CLR,,0.00,WeatherDisplay:10.37,2013-03-13 23:30:00,
2013-03-13 18:35:00,44.4,21.6,30.30,WSW,254,4.6,4.6,40,0.00,CLR,,0.00,WeatherDisplay:10.37,2013-03-13 23:35:00,
2013-03-13 18:40:00,44.2,22.5,30.30,WSW,254,3.5,3.5,42,0.00,CLR,,0.00,WeatherDisplay:10.37,2013-03-13 23:40:00,
2013-03-13 18:45:00,44.0,22.9,30.31,WSW,254,5.8,5.8,43,0.00,CLR,,0.00,WeatherDisplay:10.37,2013-03-13 23:45:00,
2013-03-13 18:50:00,43.8,23.3,30.30,WSW,252,4.6,4.6,44,0.00,CLR,,0.00,WeatherDisplay:10.37,2013-03-13 23:50:00,
2013-03-13 18:55:00,43.8,23.8,30.30,WSW,252,3.5,3.5,45,0.00,CLR,,0.00,WeatherDisplay:10.37,2013-03-13 23:55:00,
2013-03-13 19:00:00,43.6,24.2,30.31,WSW,252,4.0,4.0,46,0.00,CLR,,0.00,WeatherDisplay:10.37,2013-03-14 00:00:00,
2013-03-13 19:05:00,43.3,23.9,30.31,WSW,246,5.8,5.8,46,0.00,CLR,,0.00,WeatherDisplay:10.37,2013-03-14 00:05:00,
2013-03-13 19:10:00,43.2,23.8,30.31,WSW,246,4.6,4.6,46,0.00,CLR,,0.00,WeatherDisplay:10.37,2013-03-14 00:10:00,
2013-03-13 19:15:00,43.0,24.1,30.30,WSW,246,3.0,3.0,47,0.00,CLR,,0.00,WeatherDisplay:10.37,2013-03-14 00:15:00,
2013-03-13 19:20:00,42.8,23.9,30.30,WSW,246,2.3,2.3,47,0.00,CLR,,0.00,WeatherDisplay:10.37,2013-03-14 00:20:00,
2013-03-13 19:27:00,42.6,23.2,30.31,WSW,246,0.0,0.0,46,0.00,CLR,,0.00,WeatherDisplay:10.37,2013-03-14 00:27:00,
2013-03-13 19:32:00,42.5,23.7,30.31,WSW,246,0.0,0.0,47,0.00,CLR,,0.00,WeatherDisplay:10.37,2013-03-14 00:32:00,
2013-03-13 19:38:00,42.3,23.5,30.30,WSW,246,1.2,0.0,47,0.00,CLR,,0.00,WeatherDisplay:10.37,2013-03-14 00:38:00,
2013-03-13 19:43:00,42.0,23.2,30.29,WSW,246,1.2,1.2,47,0.00,CLR,,0.00,WeatherDisplay:10.37,2013-03-14 00:43:00,
2013-03-13 19:48:00,41.7,23.4,30.29,WSW,246,0.0,0.0,48,0.00,CLR,,0.00,WeatherDisplay:10.37,2013-03-14 00:48:00,
2013-03-13 19:53:00,41.5,23.2,30.29,WSW,246,0.0,0.0,48,0.00,CLR,,0.00,WeatherDisplay:10.37,2013-03-14 00:53:00,
2013-03-13 19:58:00,41.3,23.6,30.30,WSW,246,1.2,1.2,49,0.00,CLR,,0.00,WeatherDisplay:10.37,2013-03-14 00:58:00,
2013-03-13 20:03:00,41.2,23.5,30.29,WSW,246,0.0,0.0,49,0.00,CLR,,0.00,WeatherDisplay:10.37,2013-03-14 01:03:00,
2013-03-13 20:08:00,41.1,23.4,30.30,WSW,246,0.0,0.0,49,0.00,CLR,,0.00,WeatherDisplay:10.37,2013-03-14 01:08:00,
2013-03-13 20:13:00,40.9,23.7,30.30,WSW,246,0.0,0.0,50,0.00,CLR,,0.00,WeatherDisplay:10.37,2013-03-14 01:13:00,
2013-03-13 20:18:00,40.7,23.5,30.29,WSW,246,1.2,0.0,50,0.00,CLR,,0.00,WeatherDisplay:10.37,2013-03-14 01:18:00,
2013-03-13 20:23:00,40.4,23.2,30.29,WSW,246,0.0,0.0,50,0.00,CLR,,0.00,WeatherDisplay:10.37,2013-03-14 01:23:00,
2013-03-13 20:28:00,40.1,23.4,30.29,WSW,246,0.0,0.0,51,0.00,CLR,,0.00,WeatherDisplay:10.37,2013-03-14 01:28:00,
2013-03-13 20:33:00,39.8,23.1,30.29,WSW,246,0.0,0.0,51,0.00,CLR,,0.00,WeatherDisplay:10.37,2013-03-14 01:33:00,
2013-03-13 20:38:00,39.8,23.6,30.29,WSW,246,0.0,0.0,52,0.00,CLR,,0.00,WeatherDisplay:10.37,2013-03-14 01:38:00,
2013-03-13 20:43:00,39.8,23.1,30.28,WSW,246,2.3,0.0,51,0.00,CLR,,0.00,WeatherDisplay:10.37,2013-03-14 01:43:00,
2013-03-13 20:48:00,39.8,23.1,30.28,WSW,246,0.0,0.0,51,0.00,CLR,,0.00,WeatherDisplay:10.37,2013-03-14 01:48:00,
2013-03-13 20:53:00,39.7,23.0,30.28,WSW,246,1.0,1.0,51,0.00,CLR,,0.00,WeatherDisplay:10.37,2013-03-14 01:53:00,
2013-03-13 20:58:00,39.6,22.9,30.28,WSW,246,0.0,0.0,51,0.00,CLR,,0.00,WeatherDisplay:10.37,2013-03-14 01:58:00,
2013-03-13 21:03:00,39.6,22.9,30.27,WSW,246,1.2,0.0,51,0.00,CLR,,0.00,WeatherDisplay:10.37,2013-03-14 02:03:00,
2013-03-13 21:08:00,39.5,23.3,30.28,WSW,246,1.2,0.0,52,0.00,CLR,,0.00,WeatherDisplay:10.37,2013-03-14 02:08:00,
2013-03-13 21:13:00,39.3,23.1,30.28,WSW,246,1.2,0.0,52,0.00,CLR,,0.00,WeatherDisplay:10.37,2013-03-14 02:13:00,
2013-03-13 21:18:00,39.3,23.1,30.28,WSW,246,1.2,1.2,52,0.00,CLR,,0.00,WeatherDisplay:10.37,2013-03-14 02:18:00,
2013-03-13 21:23:00,39.2,23.0,30.28,WSW,246,2.3,2.3,52,0.00,CLR,,0.00,WeatherDisplay:10.37,2013-03-14 02:23:00,
2013-03-13 21:28:00,39.1,23.4,30.28,WSW,246,3.0,3.0,53,0.00,CLR,,0.00,WeatherDisplay:10.37,2013-03-14 02:28:00,
2013-03-13 21:33:00,39.0,23.3,30.28,WSW,246,2.3,2.3,53,0.00,CLR,,0.00,WeatherDisplay:10.37,2013-03-14 02:33:00,
2013-03-13 21:38:00,39.0,23.7,30.28,WSW,246,3.5,3.5,54,0.00,CLR,,0.00,WeatherDisplay:10.37,2013-03-14 02:38:00,
2013-03-13 21:43:00,38.9,23.7,30.28,WSW,246,3.5,3.5,54,0.00,CLR,,0.00,WeatherDisplay:10.37,2013-03-14 02:43:00,
2013-03-13 21:48:00,38.9,23.7,30.28,WSW,246,3.5,3.5,54,0.00,CLR,,0.00,WeatherDisplay:10.37,2013-03-14 02:48:00,
2013-03-13 21:53:00,38.9,24.1,30.28,WSW,246,2.3,2.3,55,0.00,CLR,,0.00,WeatherDisplay:10.37,2013-03-14 02:53:00,
2013-03-13 21:58:00,38.8,24.0,30.27,WSW,246,3.5,3.5,55,0.00,CLR,,0.00,WeatherDisplay:10.37,2013-03-14 02:58:00,
2013-03-13 22:03:00,38.8,24.4,30.27,WSW,244,8.1,8.1,56,0.00,CLR,,0.00,WeatherDisplay:10.37,2013-03-14 03:03:00,
2013-03-13 22:08:00,38.7,24.3,30.27,WSW,244,3.5,3.5,56,0.00,CLR,,0.00,WeatherDisplay:10.37,2013-03-14 03:08:00,
2013-03-13 22:13:00,38.7,24.8,30.27,WSW,241,4.0,4.0,57,0.00,CLR,,0.00,WeatherDisplay:10.37,2013-03-14 03:13:00,
2013-03-13 22:18:00,38.6,24.7,30.26,WSW,239,3.5,3.5,57,0.00,CLR,,0.00,WeatherDisplay:10.37,2013-03-14 03:18:00,
2013-03-13 22:23:00,38.6,24.7,30.26,WSW,237,9.2,9.2,57,0.00,CLR,,0.00,WeatherDisplay:10.37,2013-03-14 03:23:00,
2013-03-13 22:28:00,38.5,24.6,30.26,SW,235,5.8,5.8,57,0.00,CLR,,0.00,WeatherDisplay:10.37,2013-03-14 03:28:00,
2013-03-13 22:33:00,38.5,25.0,30.26,SW,232,6.9,6.9,58,0.00,CLR,,0.00,WeatherDisplay:10.37,2013-03-14 03:33:00,
2013-03-13 22:38:00,38.4,24.9,30.27,SW,232,3.5,3.5,58,0.00,CLR,,0.00,WeatherDisplay:10.37,2013-03-14 03:38:00,
2013-03-13 22:43:00,38.3,25.2,30.26,SW,226,9.2,9.2,59,0.00,CLR,,0.00,WeatherDisplay:10.37,2013-03-14 03:43:00,
2013-03-13 22:48:00,38.2,25.1,30.26,SW,224,3.5,3.5,59,0.00,CLR,,0.00,WeatherDisplay:10.37,2013-03-14 03:48:00,
2013-03-13 22:53:00,38.2,25.5,30.26,SW,222,4.6,4.6,60,0.00,CLR,,0.00,WeatherDisplay:10.37,2013-03-14 03:53:00,
2013-03-13 22:58:00,38.1,25.8,30.26,SW,219,5.8,5.8,61,0.00,CLR,,0.00,WeatherDisplay:10.37,2013-03-14 03:58:00,
2013-03-13 23:00:00,38.1,25.8,30.26,SW,221,3.0,9.0,61,0.00,CLR,,0.00,WeatherDisplay:10.37,2013-03-14 04:00:00,
2013-03-13 23:02:00,38.1,25.8,30.26,SW,217,6.9,6.9,61,0.00,CLR,,0.00,WeatherDisplay:10.37,2013-03-14 04:02:00,
2013-03-13 23:07:00,38.0,26.1,30.25,SSW,205,5.8,5.8,62,0.00,CLR,,0.00,WeatherDisplay:10.37,2013-03-14 04:07:00,
2013-03-13 23:12:00,37.9,26.0,30.26,SSW,204,6.0,6.0,62,0.00,CLR,,0.00,WeatherDisplay:10.37,2013-03-14 04:12:00,
2013-03-13 23:17:00,37.9,26.0,30.25,SSW,198,3.5,3.5,62,0.00,CLR,,0.00,WeatherDisplay:10.37,2013-03-14 04:17:00,
2013-03-13 23:22:00,37.8,25.9,30.26,South,184,10.4,10.4,62,0.00,CLR,,0.00,WeatherDisplay:10.37,2013-03-14 04:22:00,
2013-03-13 23:27:00,37.7,25.8,30.25,South,184,6.9,6.9,62,0.00,CLR,,0.00,WeatherDisplay:10.37,2013-03-14 04:27:00,
2013-03-13 23:32:00,37.6,26.1,30.25,South,180,5.0,5.0,63,0.00,CLR,,0.00,WeatherDisplay:10.37,2013-03-14 04:32:00,
2013-03-13 23:37:00,37.5,26.0,30.25,South,180,7.0,7.0,63,0.00,CLR,,0.00,WeatherDisplay:10.37,2013-03-14 04:37:00,
2013-03-13 23:42:00,37.5,26.0,30.25,South,176,9.2,9.2,63,0.00,CLR,,0.00,WeatherDisplay:10.37,2013-03-14 04:42:00,
2013-03-13 23:47:00,37.5,26.0,30.25,South,176,6.9,6.9,63,0.00,CLR,,0.00,WeatherDisplay:10.37,2013-03-14 04:47:00,
2013-03-13 23:52:00,37.5,26.0,30.25,South,173,10.4,10.4,63,0.00,CLR,,0.00,WeatherDisplay:10.37,2013-03-14 04:52:00,
2013-03-13 23:57:00,37.5,26.0,30.24,South,171,6.9,6.9,63,0.00,CLR,,0.00,WeatherDisplay:10.37,2013-03-14 04:57:00,